Location: Unspecified
(52.0000°N, 4.4000°E)
Time: 00:02:18
(UTC+00:00)

CENTAUR R/B - Pass Details

Date: 14 May 2025
Orbit: 644 x 1537 km, 63.4° (Epoch: 22 June)

Event Time Altitude Azimuth Distance (km) Brightness Sun altitude
Rises 21:46:03 0° 296° (WNW) 3,779 6.5 -15.0°
Reaches altitude 10° 21:48:43 10° 305° (NW) 2,956 6.0 -15.2°
Maximum altitude 21:55:22 37° 12° (NNE) 1,857 4.4 -15.6°
Drops below altitude 10° 22:03:16 10° 78° (ENE) 3,531 5.3 -16.1°
Sets 22:06:45 0° 86° (E) 4,595 5.8 -16.3°
